This is the latest recevied weather packets stored in our database for station/object WA4TPR. If no packets are shown the sender has not sent any weather packets the latest 10 day(s).
| Time | Temp. | Humidity | Pressure | Rain* | Wind** | Luminosity | Snow |
|---|---|---|---|---|---|---|---|
| 1778192777 | 33.33° C | 39% | 1017.1 hPa | 0 mm | - | 211 W/m² | - |
| 1778192474 | 33.33° C | 38% | 1017.2 hPa | 0 mm | - | 197 W/m² | - |
| 1778192169 | 33.89° C | 38% | 1017.3 hPa | 0 mm | - | 230 W/m² | - |
| 1778191866 | 33.33° C | 39% | 1017.2 hPa | 0 mm | - | 266 W/m² | - |
| 1778191564 | 33.89° C | 38% | 1017.1 hPa | 0 mm | - | 282 W/m² | - |
| 1778191261 | 33.89° C | 38% | 1017.1 hPa | 0 mm | - | 298 W/m² | - |
| 1778190957 | 33.89° C | 37% | 1017 hPa | 0 mm | - | 319 W/m² | - |
| 1778190655 | 34.44° C | 36% | 1016.9 hPa | 0 mm | - | 337 W/m² | - |
| 1778190352 | 33.89° C | 37% | 1017.1 hPa | 0 mm | - | 354 W/m² | - |
| 1778190048 | 34.44° C | 37% | 1017 hPa | 0 mm | - | 372 W/m² | - |
| 1778189744 | 34.44° C | 37% | 1016.9 hPa | 0 mm | - | 394 W/m² | - |
| 1778189442 | 33.89° C | 37% | 1017 hPa | 0 mm | - | 406 W/m² | - |
| 1778189137 | 33.89° C | 40% | 1017 hPa | 0 mm | - | 421 W/m² | - |
| 1778188835 | 33.89° C | 42% | 1017.1 hPa | 0 mm | - | 438 W/m² | - |
| 1778188531 | 33.89° C | 42% | 1017.1 hPa | 0 mm | - | 455 W/m² | - |
| 1778188227 | 33.89° C | 42% | 1017.2 hPa | 0 mm | - | 469 W/m² | - |
| 1778187925 | 33.89° C | 44% | 1017.2 hPa | 0 mm | - | 483 W/m² | - |
| 1778187621 | 33.89° C | 44% | 1017.3 hPa | 0 mm | - | 499 W/m² | - |
| 1778187318 | 35° C | 44% | 1017.3 hPa | 0 mm | - | 515 W/m² | - |
| 1778187014 | 33.89° C | 44% | 1017.4 hPa | 0 mm | - | 527 W/m² | - |
| 1778186711 | 34.44° C | 43% | 1017.4 hPa | 0 mm | - | 544 W/m² | - |
| 1778186409 | 33.89° C | 42% | 1017.4 hPa | 0 mm | - | 559 W/m² | - |
| 1778186106 | 33.89° C | 42% | 1017.4 hPa | 0 mm | - | 572 W/m² | - |
| 1778185803 | 33.89° C | 41% | 1017.5 hPa | 0 mm | - | 592 W/m² | - |
| 1778185499 | 33.89° C | 40% | 1017.5 hPa | 0 mm | - | 606 W/m² | - |
* Rain latest hour (hover to see other rain measurements)
** Current wind speed in m/s (hover to see current wind gust speed)